Regional Weather Roundup
Issued by NWS Huntsville, AL

Home | Current Version | Previous Version | Text Only | Print | Product List | Glossary On
Versions: 1 2 3 4 5 6 7 8 9 10 11 12 13 14 15 16 17 18 19 20 21 22 23 24 25 26 27 28 29 30 31 32 33 34 35 36 37 38 39 40 41 42 43 44 45 46 47 48 49 50
000
ASUS44 KHUN 230610
RWRHUN

WEATHER ROUNDUP FOR THE TENNESSEE VALLEY
NATIONAL WEATHER SERVICE HUNTSVILLE AL
100 AM CDT SAT MAY 23 2015

ALZ001>004-230700-
NORTHWEST ALABAMA

CITY           SKY/WX    TMP DP  RH WIND       PRES   REMARKS
COURTLAND HCN    N/A     52 N/A N/A CALM        N/A
RUSSELLVILLE     N/A     48 N/A N/A MISG        N/A
SHOALS AIRPORT CLEAR     54  49  83 CALM      30.26F
6HR MIN TEMP:  53; 6HR MAX TEMP:  73;

SHOALS TVA RES   N/A     52 N/A N/A MISG        N/A
$$

ALZ005>007-016-230700-
NORTH CENTRAL ALABAMA

CITY           SKY/WX    TMP DP  RH WIND       PRES   REMARKS
CULLMAN AG STN   N/A     52 N/A N/A CALM        N/A
DECATUR AP     CLEAR     54  51  90 N3        30.27R
6HR MIN TEMP:  53; 6HR MAX TEMP:  73;

HUNTSVILLE AP  CLEAR     57  51  80 CALM      30.26R
6HR MIN TEMP:  57; 6HR MAX TEMP:  76;

MERIDIANVILLE  CLEAR     50  46  87 CALM      30.26S
REDSTONE ARSN  CLEAR     54  48  78 N2        30.25S
VINEMONT AP    FAIR      54  51  89 CALM      30.27S
$$

ALZ008>010-230700-
NORTHEAST ALABAMA

CITY           SKY/WX    TMP DP  RH WIND       PRES   REMARKS
ALBERTVILLE    CLEAR     52  52 100 E5        30.25F
FORT PAYNE     CLEAR     46  43  87 CALM      30.27S
SCOTTSBORO HCN   N/A     50 N/A N/A MISG        N/A
VALLEY HEAD      N/A     48 N/A N/A MISG        N/A
$$

TNZ076-096-097-230700-
SOUTHEASTERN MIDDLE TENNESSEE

CITY           SKY/WX    TMP DP  RH WIND       PRES   REMARKS
TULLAHOMA      CLEAR     48  45  87 CALM      30.28F
WINCHESTER     CLEAR     50  48  93 CALM      30.28S
$$

...SURROUNDING SITES...

CITY           SKY/WX    TMP DP  RH WIND       PRES   REMARKS
ATLANTA        CLEAR     67  52  58 CALM      30.26F
ANNISTON       CLEAR     58  53  84 E3        30.25F
BIRMINGHAM     CLEAR     64  50  60 NE5       30.25F
CHATTANOOGA    CLEAR     55  50  83 CALM      30.28S
CORINTH        FAIR      54  52  94 CALM      30.24R
DALTON         CLEAR     50  50 100 CALM      30.27S
GADSDEN        CLEAR    N/A N/A N/A CALM      30.24S
GOLDEN TRNGL   CLEAR     57  54  88 CALM      30.21F
HALEYVILLE     FAIR      49  49 100 CALM      30.27F
JACKSON TN     CLEAR     51  49  92 CALM      30.25S
LEWISBURG      FAIR      47  44  89 CALM      30.27S
MEMPHIS        CLOUDY    65  49  56 E7        30.22F
NASHVILLE      PTCLDY    55  50  83 CALM      30.27F
OXFORD MS      FAIR      54  50  87 CALM      30.24F
ROME           CLEAR     52  48  86 CALM      30.26S
SAVANNAH       CLEAR     48  32  53 CALM      30.25S
TUPELO         CLEAR     56  52  86 CALM      30.23S
TUSCALOOSA     CLEAR     58  54  86 CALM      30.22F
$$

...GULF COAST WEATHER...

CITY           SKY/WX    TMP DP  RH WIND       PRES   REMARKS
GULFPORT       CLOUDY    73  63  70 NE5       30.17F
PASCAGOULA     CLOUDY    70  63  78 NE3       30.18F
MOBILE         CLEAR     68  58  70 NE5       30.19F
GULF SHORES    CLEAR     68  60  77 NE3       30.18S
PENSACOLA      CLEAR     70  60  70 NE7       30.17F
DESTIN         CLEAR     75  57  53 NE5       30.18F
PANAMA CITY    CLEAR     72  59  63 NE6       30.17F
APPALACHICOLA  CLEAR     73  60  63 NE6       30.17S
$$



USA.gov is the U.S. government's official web portal to all federal, state and local government web resources and services.